Year,Month,Day,Hour,Minute,Value (Times are PST for temperature in C)
2014,05,23,01,49,10.70
2014,05,23,01,50,10.70
2014,05,23,01,51,10.70
2014,05,23,01,52,10.70
2014,05,23,01,53,10.70
2014,05,23,01,54,10.70
2014,05,23,01,55,10.70
2014,05,23,01,56,10.70
2014,05,23,01,57,10.70
2014,05,23,01,58,10.70
2014,05,23,01,59,10.70
2014,05,23,02,00,10.70
2014,05,23,02,01,10.70
2014,05,23,02,02,10.70
2014,05,23,02,03,10.70
2014,05,23,02,04,10.70
2014,05,23,02,05,10.70
2014,05,23,02,06,10.70
2014,05,23,02,07,10.70
2014,05,23,02,08,10.70
2014,05,23,02,09,10.70
2014,05,23,02,10,10.70
2014,05,23,02,11,10.70
2014,05,23,02,12,10.70
2014,05,23,02,13,10.70
2014,05,23,02,14,10.70
2014,05,23,02,15,10.70
2014,05,23,02,16,10.70
2014,05,23,02,17,10.70
2014,05,23,02,18,10.70
2014,05,23,02,19,10.70
2014,05,23,02,20,10.70
2014,05,23,02,21,10.70
2014,05,23,02,22,10.70
2014,05,23,02,23,10.70
2014,05,23,02,24,10.70
2014,05,23,02,25,10.70
2014,05,23,02,26,10.70
2014,05,23,02,27,10.70
2014,05,23,02,28,10.70
2014,05,23,02,29,10.70
2014,05,23,02,30,10.70
2014,05,23,02,31,10.70
2014,05,23,02,32,10.70
2014,05,23,02,33,10.70
2014,05,23,02,34,10.70
2014,05,23,02,35,10.70
2014,05,23,02,36,10.70
2014,05,23,02,37,10.70
2014,05,23,02,38,10.70
2014,05,23,02,39,10.70
2014,05,23,02,40,10.70
2014,05,23,02,41,10.70
2014,05,23,02,42,10.70
2014,05,23,02,43,10.70
2014,05,23,02,44,10.70
2014,05,23,02,45,10.70
2014,05,23,02,46,10.70
2014,05,23,02,47,10.70
2014,05,23,02,48,10.70
2014,05,23,02,49,10.70
2014,05,23,02,50,10.80
2014,05,23,02,51,10.80
2014,05,23,02,52,10.80
2014,05,23,02,53,10.80
2014,05,23,02,54,10.80
2014,05,23,02,55,10.80
2014,05,23,02,56,10.80
2014,05,23,02,57,10.80
2014,05,23,02,58,10.80
2014,05,23,02,59,10.80
2014,05,23,03,00,10.80
2014,05,23,03,01,10.80
2014,05,23,03,02,10.80
2014,05,23,03,03,10.80
2014,05,23,03,04,10.80
2014,05,23,03,05,10.80
2014,05,23,03,06,10.80
2014,05,23,03,07,10.80
2014,05,23,03,08,10.80
2014,05,23,03,09,10.80
2014,05,23,03,10,10.80
2014,05,23,03,11,10.80
2014,05,23,03,12,10.80
2014,05,23,03,13,10.80
2014,05,23,03,14,10.80
2014,05,23,03,15,10.80
2014,05,23,03,16,10.80
2014,05,23,03,17,10.80
2014,05,23,03,18,10.80
2014,05,23,03,19,10.80
2014,05,23,03,20,10.80
2014,05,23,03,21,10.80
2014,05,23,03,22,10.80
2014,05,23,03,23,10.80
2014,05,23,03,24,10.80
2014,05,23,03,25,10.80
2014,05,23,03,26,10.80
2014,05,23,03,27,10.80
2014,05,23,03,28,10.80
2014,05,23,03,29,10.80
2014,05,23,03,30,10.80
2014,05,23,03,31,10.80
2014,05,23,03,32,10.80
2014,05,23,03,33,10.80
2014,05,23,03,34,10.80
2014,05,23,03,35,10.80
2014,05,23,03,36,10.80
2014,05,23,03,37,10.80
2014,05,23,03,38,10.80
2014,05,23,03,39,10.80
2014,05,23,03,40,10.80
2014,05,23,03,41,10.80
2014,05,23,03,42,10.80
2014,05,23,03,43,10.80
2014,05,23,03,44,10.80
2014,05,23,03,45,10.80
2014,05,23,03,46,10.80
2014,05,23,03,47,10.80
2014,05,23,03,48,10.80
2014,05,23,03,49,10.80
2014,05,23,03,50,10.80
2014,05,23,03,51,10.70
2014,05,23,03,52,10.70
2014,05,23,03,53,10.70
2014,05,23,03,54,10.70
2014,05,23,03,55,10.70
2014,05,23,03,56,10.70
2014,05,23,03,57,10.70
2014,05,23,03,58,10.70
2014,05,23,03,59,10.70
2014,05,23,04,00,10.70
2014,05,23,04,01,10.70
2014,05,23,04,02,10.70
2014,05,23,04,03,10.70
2014,05,23,04,04,10.70
2014,05,23,04,05,10.70
2014,05,23,04,06,10.70
2014,05,23,04,07,10.70
2014,05,23,04,08,10.70
2014,05,23,04,09,10.70
2014,05,23,04,10,10.70
2014,05,23,04,11,10.70
2014,05,23,04,12,10.70
2014,05,23,04,13,10.70
2014,05,23,04,14,10.70
2014,05,23,04,15,10.70
2014,05,23,04,16,10.70
2014,05,23,04,17,10.70
2014,05,23,04,18,10.70
2014,05,23,04,19,10.70
2014,05,23,04,20,10.70
2014,05,23,04,21,10.70
2014,05,23,04,22,10.70
2014,05,23,04,23,10.70
2014,05,23,04,24,10.70
2014,05,23,04,25,10.70
2014,05,23,04,26,10.70
2014,05,23,04,27,10.70
2014,05,23,04,28,10.70
2014,05,23,04,29,10.70
2014,05,23,04,30,10.70
2014,05,23,04,31,10.70
2014,05,23,04,32,10.70
2014,05,23,04,33,10.70
2014,05,23,04,34,10.70
2014,05,23,04,35,10.70
2014,05,23,04,36,10.70
2014,05,23,04,37,10.70
2014,05,23,04,38,10.70
2014,05,23,04,39,10.70
2014,05,23,04,40,10.70
2014,05,23,04,41,10.70
2014,05,23,04,42,10.70
2014,05,23,04,43,10.70
2014,05,23,04,44,10.70
2014,05,23,04,45,10.70
2014,05,23,04,46,10.70
2014,05,23,04,47,10.70
2014,05,23,04,48,10.70
2014,05,23,04,49,10.70
2014,05,23,04,50,10.70
2014,05,23,04,51,10.70
2014,05,23,04,52,11.20
2014,05,23,04,53,11.20
2014,05,23,04,54,11.20
2014,05,23,04,55,11.20
2014,05,23,04,56,11.20
2014,05,23,04,57,11.20
2014,05,23,04,58,11.20
2014,05,23,04,59,11.20
2014,05,23,05,00,11.20
2014,05,23,05,01,11.20
2014,05,23,05,02,11.20
2014,05,23,05,03,11.20
2014,05,23,05,04,11.20
2014,05,23,05,05,11.20
2014,05,23,05,06,11.20
2014,05,23,05,07,11.20
2014,05,23,05,08,11.20
2014,05,23,05,09,11.20
2014,05,23,05,10,11.20
2014,05,23,05,11,11.20
2014,05,23,05,12,11.20
2014,05,23,05,13,11.20
2014,05,23,05,14,11.20
2014,05,23,05,15,11.20
2014,05,23,05,16,11.20
2014,05,23,05,17,11.20
2014,05,23,05,18,11.20
2014,05,23,05,19,11.20
2014,05,23,05,20,11.20
2014,05,23,05,21,11.20
2014,05,23,05,22,11.20
2014,05,23,05,23,11.20
2014,05,23,05,24,11.20
2014,05,23,05,25,11.20
2014,05,23,05,26,11.20
2014,05,23,05,27,11.20
2014,05,23,05,28,11.20
2014,05,23,05,29,11.20
2014,05,23,05,30,11.20
2014,05,23,05,31,11.20
2014,05,23,05,32,11.20
2014,05,23,05,33,11.20
2014,05,23,05,34,11.20
2014,05,23,05,35,11.20
2014,05,23,05,36,11.20
2014,05,23,05,37,11.20
2014,05,23,05,38,11.20
2014,05,23,05,39,11.20
2014,05,23,05,40,11.20
2014,05,23,05,41,11.20
2014,05,23,05,42,11.20
2014,05,23,05,43,11.20
2014,05,23,05,44,11.20
2014,05,23,05,45,11.20
2014,05,23,05,46,11.20
2014,05,23,05,47,11.20
2014,05,23,05,48,11.20
2014,05,23,05,49,11.20
2014,05,23,05,50,11.20
2014,05,23,05,51,11.20
2014,05,23,05,52,13.30
2014,05,23,05,53,13.30
2014,05,23,05,54,13.30
2014,05,23,05,55,13.30
2014,05,23,05,56,13.30
2014,05,23,05,57,13.30
2014,05,23,05,58,13.30
2014,05,23,05,59,13.30
2014,05,23,06,00,13.30
2014,05,23,06,01,13.30
2014,05,23,06,02,13.30
2014,05,23,06,03,13.30
2014,05,23,06,04,13.30
2014,05,23,06,05,13.30
2014,05,23,06,06,13.30
2014,05,23,06,07,13.30
2014,05,23,06,08,13.30
2014,05,23,06,09,13.30
2014,05,23,06,10,13.30
2014,05,23,06,11,13.30
2014,05,23,06,12,13.30
2014,05,23,06,13,13.30
2014,05,23,06,14,13.30
2014,05,23,06,15,13.30
2014,05,23,06,16,13.30
2014,05,23,06,17,13.30
2014,05,23,06,18,13.30
2014,05,23,06,19,13.30
2014,05,23,06,20,13.30
2014,05,23,06,21,13.30
2014,05,23,06,22,13.30
2014,05,23,06,23,13.30
2014,05,23,06,24,13.30
2014,05,23,06,25,13.30
2014,05,23,06,26,13.30
2014,05,23,06,27,13.30
2014,05,23,06,28,13.30
2014,05,23,06,29,13.30
2014,05,23,06,30,13.30
2014,05,23,06,31,13.30
2014,05,23,06,32,13.30
2014,05,23,06,33,13.30
2014,05,23,06,34,13.30
2014,05,23,06,35,13.30
2014,05,23,06,36,13.30
2014,05,23,06,37,13.30
2014,05,23,06,38,13.30
2014,05,23,06,39,13.30
2014,05,23,06,40,13.30
2014,05,23,06,41,13.30
2014,05,23,06,42,13.30
2014,05,23,06,43,13.30
2014,05,23,06,44,13.30
2014,05,23,06,45,13.30
2014,05,23,06,46,13.30
2014,05,23,06,47,13.30
2014,05,23,06,48,13.30
2014,05,23,06,49,13.30
2014,05,23,06,50,13.30
2014,05,23,06,51,13.30
2014,05,23,06,52,13.30
2014,05,23,06,53,12.60
2014,05,23,06,54,12.60
2014,05,23,06,55,12.60
2014,05,23,06,56,12.60
2014,05,23,06,57,12.60
2014,05,23,06,58,12.60
2014,05,23,06,59,12.60
2014,05,23,07,00,12.60
2014,05,23,07,01,12.60
2014,05,23,07,02,12.60
2014,05,23,07,03,12.60
2014,05,23,07,04,12.60
2014,05,23,07,05,12.60
2014,05,23,07,06,12.60
2014,05,23,07,07,12.60
2014,05,23,07,08,12.60
2014,05,23,07,09,12.60
2014,05,23,07,10,12.60
2014,05,23,07,11,12.60
2014,05,23,07,12,12.60
2014,05,23,07,13,12.60
2014,05,23,07,14,12.60
2014,05,23,07,15,12.60
2014,05,23,07,16,12.60
2014,05,23,07,17,12.60
2014,05,23,07,18,12.60
2014,05,23,07,19,12.60
2014,05,23,07,20,12.60
2014,05,23,07,21,12.60
2014,05,23,07,22,12.60
2014,05,23,07,23,12.60
2014,05,23,07,24,12.60
2014,05,23,07,25,12.60
2014,05,23,07,26,12.60
2014,05,23,07,27,12.60
2014,05,23,07,28,12.60
2014,05,23,07,29,12.60
2014,05,23,07,30,12.60
2014,05,23,07,31,12.60
2014,05,23,07,32,12.60
2014,05,23,07,33,12.60
2014,05,23,07,34,12.60
2014,05,23,07,35,12.60
2014,05,23,07,36,12.60
2014,05,23,07,37,12.60
2014,05,23,07,38,12.60
2014,05,23,07,39,12.60
2014,05,23,07,40,12.60
2014,05,23,07,41,12.60
2014,05,23,07,42,12.60
2014,05,23,07,43,12.60
2014,05,23,07,44,12.60
2014,05,23,07,45,12.60
2014,05,23,07,46,12.60
2014,05,23,07,47,12.60
2014,05,23,07,48,12.60
2014,05,23,07,49,12.60
2014,05,23,07,50,12.60
2014,05,23,07,51,12.60
2014,05,23,07,52,12.60
2014,05,23,07,53,12.60
2014,05,23,07,54,12.60
2014,05,23,07,55,12.60
2014,05,23,07,56,12.60
2014,05,23,07,57,12.60
2014,05,23,07,58,12.60
2014,05,23,07,59,12.60
2014,05,23,08,00,12.60
2014,05,23,08,01,12.60
2014,05,23,08,02,12.60
2014,05,23,08,03,12.60
2014,05,23,08,04,12.60
2014,05,23,08,05,12.60
2014,05,23,08,06,12.60
2014,05,23,08,07,12.60
2014,05,23,08,08,12.60
2014,05,23,08,09,12.60
2014,05,23,08,10,12.60
2014,05,23,08,11,12.60
2014,05,23,08,12,12.60
2014,05,23,08,13,12.60
2014,05,23,08,14,12.60
2014,05,23,08,15,12.60
2014,05,23,08,16,12.60
2014,05,23,08,17,12.60
2014,05,23,08,18,12.60
2014,05,23,08,19,12.60
2014,05,23,08,20,12.60
2014,05,23,08,21,12.60
2014,05,23,08,22,12.60
2014,05,23,08,23,12.60
2014,05,23,08,24,12.60
2014,05,23,08,25,12.60
2014,05,23,08,26,12.60
2014,05,23,08,27,12.60
2014,05,23,08,28,12.60
2014,05,23,08,29,12.60
2014,05,23,08,30,12.60
2014,05,23,08,31,12.60
2014,05,23,08,32,12.60
2014,05,23,08,33,12.60
2014,05,23,08,34,12.60
2014,05,23,08,35,12.60
2014,05,23,08,36,12.60
2014,05,23,08,37,12.60
2014,05,23,08,38,12.60
2014,05,23,08,39,12.60
2014,05,23,08,40,12.60
2014,05,23,08,41,12.60
2014,05,23,08,42,12.60
2014,05,23,08,43,12.60
2014,05,23,08,44,12.60
2014,05,23,08,45,12.60
2014,05,23,08,46,12.60
2014,05,23,08,47,12.60
2014,05,23,08,48,12.60
2014,05,23,08,49,12.60
2014,05,23,08,50,12.60
2014,05,23,08,51,12.60
2014,05,23,08,52,12.60
2014,05,23,08,53,12.60
2014,05,23,08,54,11.80
2014,05,23,08,55,11.80
2014,05,23,08,56,11.80
2014,05,23,08,57,11.80
2014,05,23,08,58,11.80
2014,05,23,08,59,11.80
2014,05,23,09,00,11.80
2014,05,23,09,01,11.80
2014,05,23,09,02,11.80
2014,05,23,09,03,11.80
2014,05,23,09,04,11.80
2014,05,23,09,05,11.80
2014,05,23,09,06,11.80
2014,05,23,09,07,11.80
2014,05,23,09,08,11.80
2014,05,23,09,09,11.80
2014,05,23,09,10,11.80
2014,05,23,09,11,11.80
2014,05,23,09,12,11.80
2014,05,23,09,13,11.80
2014,05,23,09,14,11.80
2014,05,23,09,15,11.80
2014,05,23,09,16,11.80
2014,05,23,09,17,11.80
2014,05,23,09,18,11.80
2014,05,23,09,19,11.80
2014,05,23,09,20,11.80
2014,05,23,09,21,11.80
2014,05,23,09,22,11.80
2014,05,23,09,23,11.80
2014,05,23,09,24,11.80
2014,05,23,09,25,11.80
2014,05,23,09,26,11.80
2014,05,23,09,27,11.80
2014,05,23,09,28,11.80
2014,05,23,09,29,11.80
2014,05,23,09,30,11.80
2014,05,23,09,31,11.80
2014,05,23,09,32,11.80
2014,05,23,09,33,11.80
2014,05,23,09,34,11.80
2014,05,23,09,35,11.80
2014,05,23,09,36,11.80
2014,05,23,09,37,11.80
2014,05,23,09,38,11.80
2014,05,23,09,39,11.80
2014,05,23,09,40,11.80
2014,05,23,09,41,11.80
2014,05,23,09,42,11.80
2014,05,23,09,43,11.80
2014,05,23,09,44,11.80
2014,05,23,09,45,11.80
2014,05,23,09,46,11.80
2014,05,23,09,47,11.80
2014,05,23,09,48,11.80
2014,05,23,09,49,11.80
2014,05,23,09,50,11.80
2014,05,23,09,51,11.80
2014,05,23,09,52,11.80
2014,05,23,09,53,11.80
2014,05,23,09,54,11.80
2014,05,23,09,55,11.60
2014,05,23,09,56,11.60
2014,05,23,09,57,11.60
2014,05,23,09,58,11.60
2014,05,23,09,59,11.60
2014,05,23,10,00,11.60
2014,05,23,10,01,11.60
2014,05,23,10,02,11.60
2014,05,23,10,03,11.60
2014,05,23,10,04,11.60
2014,05,23,10,05,11.60
2014,05,23,10,06,11.60
2014,05,23,10,07,11.60
2014,05,23,10,08,11.60
2014,05,23,10,09,11.60
2014,05,23,10,10,11.60
2014,05,23,10,11,11.60
2014,05,23,10,12,11.60
2014,05,23,10,13,11.60
2014,05,23,10,14,11.60
2014,05,23,10,15,11.60
2014,05,23,10,16,11.60
2014,05,23,10,17,11.60
2014,05,23,10,18,11.60
2014,05,23,10,19,11.60
2014,05,23,10,20,11.60
2014,05,23,10,21,11.60
2014,05,23,10,22,11.60
2014,05,23,10,23,11.60
2014,05,23,10,24,11.60
2014,05,23,10,25,11.60
2014,05,23,10,26,11.60
2014,05,23,10,27,11.60
2014,05,23,10,28,11.60
2014,05,23,10,29,11.60
2014,05,23,10,30,11.60
2014,05,23,10,31,11.60
2014,05,23,10,32,11.60
2014,05,23,10,33,11.60
2014,05,23,10,34,11.60
2014,05,23,10,35,11.60
2014,05,23,10,36,11.60
2014,05,23,10,37,11.60
2014,05,23,10,38,11.60
2014,05,23,10,39,11.60
2014,05,23,10,40,11.60
2014,05,23,10,41,11.60
2014,05,23,10,42,11.60
2014,05,23,10,43,11.60
2014,05,23,10,44,11.60
2014,05,23,10,45,11.60
2014,05,23,10,46,11.60
2014,05,23,10,47,11.60
2014,05,23,10,48,11.60
2014,05,23,10,49,11.60
2014,05,23,10,50,11.60
2014,05,23,10,51,11.60
2014,05,23,10,52,11.60
2014,05,23,10,53,11.60
2014,05,23,10,54,11.60
2014,05,23,10,55,11.60
2014,05,23,10,56,12.10
2014,05,23,10,57,12.10
2014,05,23,10,58,12.10
2014,05,23,10,59,12.10
2014,05,23,11,00,12.10
2014,05,23,11,01,12.10
2014,05,23,11,02,12.10
2014,05,23,11,03,12.10
2014,05,23,11,04,12.10
2014,05,23,11,05,12.10
2014,05,23,11,06,12.10
2014,05,23,11,07,12.10
2014,05,23,11,08,12.10
2014,05,23,11,09,12.10
2014,05,23,11,10,12.10
2014,05,23,11,11,12.10
2014,05,23,11,12,12.10
2014,05,23,11,13,12.10
2014,05,23,11,14,12.10
2014,05,23,11,15,12.10
2014,05,23,11,16,12.10
2014,05,23,11,17,12.10
2014,05,23,11,18,12.10
2014,05,23,11,19,12.10
2014,05,23,11,20,12.10
2014,05,23,11,21,12.10
2014,05,23,11,22,12.10
2014,05,23,11,23,12.10
2014,05,23,11,24,12.10
2014,05,23,11,25,12.10
2014,05,23,11,26,12.10
2014,05,23,11,27,12.10
2014,05,23,11,28,12.10
2014,05,23,11,29,12.10
2014,05,23,11,30,12.10
2014,05,23,11,31,12.10
2014,05,23,11,32,12.10
2014,05,23,11,33,12.10
2014,05,23,11,34,12.10
2014,05,23,11,35,12.10
2014,05,23,11,36,12.10
2014,05,23,11,37,12.10
2014,05,23,11,38,12.10
2014,05,23,11,39,12.10
2014,05,23,11,40,12.10
2014,05,23,11,41,12.10
2014,05,23,11,42,12.10
2014,05,23,11,43,12.10
2014,05,23,11,44,12.10
2014,05,23,11,45,12.10
2014,05,23,11,46,12.10
2014,05,23,11,47,12.10
2014,05,23,11,48,12.10
2014,05,23,11,49,12.10
2014,05,23,11,50,12.10
2014,05,23,11,51,12.10
2014,05,23,11,52,12.10
2014,05,23,11,53,12.10
2014,05,23,11,54,12.10
2014,05,23,11,55,12.10
2014,05,23,11,56,12.10
2014,05,23,11,57,12.70
2014,05,23,11,58,12.70
2014,05,23,11,59,12.70
2014,05,23,12,00,12.70
2014,05,23,12,01,12.70
2014,05,23,12,02,12.70
2014,05,23,12,03,12.70
2014,05,23,12,04,12.70
2014,05,23,12,05,12.70
2014,05,23,12,06,12.70
2014,05,23,12,07,12.70
2014,05,23,12,08,12.70
2014,05,23,12,09,12.70
2014,05,23,12,10,12.70
2014,05,23,12,11,12.70
2014,05,23,12,12,12.70
2014,05,23,12,13,12.70
2014,05,23,12,14,12.70
2014,05,23,12,15,12.70
2014,05,23,12,16,12.70
2014,05,23,12,17,12.70
2014,05,23,12,18,12.70
2014,05,23,12,19,12.70
2014,05,23,12,20,12.70
2014,05,23,12,21,12.70
2014,05,23,12,22,12.70
2014,05,23,12,23,12.70
2014,05,23,12,24,12.70
2014,05,23,12,25,12.70
2014,05,23,12,26,12.70
2014,05,23,12,27,12.70
2014,05,23,12,28,12.70
2014,05,23,12,29,12.70
2014,05,23,12,30,12.70
2014,05,23,12,31,12.70
2014,05,23,12,32,12.70
2014,05,23,12,33,12.70
2014,05,23,12,34,12.70
2014,05,23,12,35,12.70
2014,05,23,12,36,12.70
2014,05,23,12,37,12.70
2014,05,23,12,38,12.70
2014,05,23,12,39,12.70
2014,05,23,12,40,12.70
2014,05,23,12,41,12.70
2014,05,23,12,42,12.70
2014,05,23,12,43,12.70
2014,05,23,12,44,12.70
2014,05,23,12,45,12.70
2014,05,23,12,46,12.70
2014,05,23,12,47,12.70
2014,05,23,12,48,12.70
2014,05,23,12,49,12.70
2014,05,23,12,50,12.70
2014,05,23,12,51,12.70
2014,05,23,12,52,12.70
2014,05,23,12,53,12.70
2014,05,23,12,54,12.70
2014,05,23,12,55,12.70
2014,05,23,12,56,12.70
2014,05,23,12,57,13.30
2014,05,23,12,58,13.30
2014,05,23,12,59,13.30
2014,05,23,13,00,13.30
2014,05,23,13,01,13.30
2014,05,23,13,02,13.30
2014,05,23,13,03,13.30
2014,05,23,13,04,13.30
2014,05,23,13,05,13.30
2014,05,23,13,06,13.30
2014,05,23,13,07,13.30
2014,05,23,13,08,13.30
2014,05,23,13,09,13.30
2014,05,23,13,10,13.30
2014,05,23,13,11,13.30
2014,05,23,13,12,13.30
2014,05,23,13,13,13.30
2014,05,23,13,14,13.30
2014,05,23,13,15,13.30
2014,05,23,13,16,13.30
2014,05,23,13,17,13.30
2014,05,23,13,18,13.30
2014,05,23,13,19,13.30
2014,05,23,13,20,13.30
2014,05,23,13,21,13.30
2014,05,23,13,22,13.30
2014,05,23,13,23,13.30
2014,05,23,13,24,13.30
2014,05,23,13,25,13.30
2014,05,23,13,26,13.30
2014,05,23,13,27,13.30
2014,05,23,13,28,13.30
2014,05,23,13,29,13.30
2014,05,23,13,30,13.30
2014,05,23,13,31,13.30
2014,05,23,13,32,13.30
2014,05,23,13,33,13.30
2014,05,23,13,34,13.30
2014,05,23,13,35,13.30
2014,05,23,13,36,13.30
2014,05,23,13,37,13.30
2014,05,23,13,38,13.30
2014,05,23,13,39,13.30
2014,05,23,13,40,13.30
2014,05,23,13,41,13.30
2014,05,23,13,42,13.30
2014,05,23,13,43,13.30
2014,05,23,13,44,13.30
2014,05,23,13,45,13.30
2014,05,23,13,46,13.30
2014,05,23,13,47,13.30
2014,05,23,13,48,13.30
2014,05,23,13,49,13.30
2014,05,23,13,50,13.30
2014,05,23,13,51,13.30
2014,05,23,13,52,13.30
2014,05,23,13,53,13.30
2014,05,23,13,54,13.30
2014,05,23,13,55,13.30
2014,05,23,13,56,13.30
2014,05,23,13,57,13.30
2014,05,23,13,58,13.70
2014,05,23,13,59,13.70
2014,05,23,14,00,13.70
2014,05,23,14,01,13.70
2014,05,23,14,02,13.70
2014,05,23,14,03,13.70
2014,05,23,14,04,13.70
2014,05,23,14,05,13.70
2014,05,23,14,06,13.70
2014,05,23,14,07,13.70
2014,05,23,14,08,13.70
2014,05,23,14,09,13.70
2014,05,23,14,10,13.70
2014,05,23,14,11,13.70
2014,05,23,14,12,13.70
2014,05,23,14,13,13.70
2014,05,23,14,14,13.70
2014,05,23,14,15,13.70
2014,05,23,14,16,13.70
2014,05,23,14,17,13.70
2014,05,23,14,18,13.70
2014,05,23,14,19,13.70
2014,05,23,14,20,13.70
2014,05,23,14,21,13.70
2014,05,23,14,22,13.70
2014,05,23,14,23,13.70
2014,05,23,14,24,13.70
2014,05,23,14,25,13.70
2014,05,23,14,26,13.70
2014,05,23,14,27,13.70
2014,05,23,14,28,13.70
2014,05,23,14,29,13.70
2014,05,23,14,30,13.70
2014,05,23,14,31,13.70
2014,05,23,14,32,13.70
2014,05,23,14,33,13.70
2014,05,23,14,34,13.70
2014,05,23,14,35,13.70
2014,05,23,14,36,13.70
2014,05,23,14,37,13.70
2014,05,23,14,38,13.70
2014,05,23,14,39,13.70
2014,05,23,14,40,13.70
2014,05,23,14,41,13.70
2014,05,23,14,42,13.70
2014,05,23,14,43,13.70
2014,05,23,14,44,13.70
2014,05,23,14,45,13.70
2014,05,23,14,46,13.70
2014,05,23,14,47,13.70
2014,05,23,14,48,13.70
2014,05,23,14,49,13.70
2014,05,23,14,50,13.70
2014,05,23,14,51,13.70
2014,05,23,14,52,13.70
2014,05,23,14,53,13.70
2014,05,23,14,54,13.70
2014,05,23,14,55,13.70
2014,05,23,14,56,13.70
2014,05,23,14,57,13.70
2014,05,23,14,58,13.70
2014,05,23,14,59,13.90
2014,05,23,15,00,13.90
2014,05,23,15,01,13.90
2014,05,23,15,02,13.90
2014,05,23,15,03,13.90
2014,05,23,15,04,13.90
2014,05,23,15,05,13.90
2014,05,23,15,06,13.90
2014,05,23,15,07,13.90
2014,05,23,15,08,13.90
2014,05,23,15,09,13.90
2014,05,23,15,10,13.90
2014,05,23,15,11,13.90
2014,05,23,15,12,13.90
2014,05,23,15,13,13.90
2014,05,23,15,14,13.90
2014,05,23,15,15,13.90
2014,05,23,15,16,13.90
2014,05,23,15,17,13.90
2014,05,23,15,18,13.90
2014,05,23,15,19,13.90
2014,05,23,15,20,13.90
2014,05,23,15,21,13.90
2014,05,23,15,22,13.90
2014,05,23,15,23,13.90
2014,05,23,15,24,13.90
2014,05,23,15,25,13.90
2014,05,23,15,26,13.90
2014,05,23,15,27,13.90
2014,05,23,15,28,13.90
2014,05,23,15,29,13.90
2014,05,23,15,30,13.90
2014,05,23,15,31,13.90
2014,05,23,15,32,13.90
2014,05,23,15,33,13.90
2014,05,23,15,34,13.90
2014,05,23,15,35,13.90
2014,05,23,15,36,13.90
2014,05,23,15,37,13.90
2014,05,23,15,38,13.90
2014,05,23,15,39,13.90
2014,05,23,15,40,13.90
2014,05,23,15,41,13.90
2014,05,23,15,42,13.90
2014,05,23,15,43,13.90
2014,05,23,15,44,13.90
2014,05,23,15,45,13.90
2014,05,23,15,46,13.90
2014,05,23,15,47,13.90
2014,05,23,15,48,13.90
2014,05,23,15,49,13.90
2014,05,23,15,50,13.90
2014,05,23,15,51,13.90
2014,05,23,15,52,13.90
2014,05,23,15,53,13.90
2014,05,23,15,54,13.90
2014,05,23,15,55,13.90
2014,05,23,15,56,13.90
2014,05,23,15,57,13.90
2014,05,23,15,58,13.90
2014,05,23,15,59,13.90
2014,05,23,16,00,14.80
2014,05,23,16,01,14.80
2014,05,23,16,02,14.80
2014,05,23,16,03,14.80
2014,05,23,16,04,14.80
2014,05,23,16,05,14.80
2014,05,23,16,06,14.80
2014,05,23,16,07,14.80
2014,05,23,16,08,14.80
2014,05,23,16,09,14.80
2014,05,23,16,10,14.80
2014,05,23,16,11,14.80
2014,05,23,16,12,14.80
2014,05,23,16,13,14.80
2014,05,23,16,14,14.80
2014,05,23,16,15,14.80
2014,05,23,16,16,14.80
2014,05,23,16,17,14.80
2014,05,23,16,18,14.80
2014,05,23,16,19,14.80
2014,05,23,16,20,14.80
2014,05,23,16,21,14.80
2014,05,23,16,22,14.80
2014,05,23,16,23,14.80
2014,05,23,16,24,14.80
2014,05,23,16,25,14.80
2014,05,23,16,26,14.80
2014,05,23,16,27,14.80
2014,05,23,16,28,14.80
2014,05,23,16,29,14.80
2014,05,23,16,30,14.80
2014,05,23,16,31,14.80
2014,05,23,16,32,14.80
2014,05,23,16,33,14.80
2014,05,23,16,34,14.80
2014,05,23,16,35,14.80
2014,05,23,16,36,14.80
2014,05,23,16,37,14.80
2014,05,23,16,38,14.80
2014,05,23,16,39,14.80
2014,05,23,16,40,14.80
2014,05,23,16,41,14.80
2014,05,23,16,42,14.80
2014,05,23,16,43,14.80
2014,05,23,16,44,14.80
2014,05,23,16,45,14.80
2014,05,23,16,46,14.80
2014,05,23,16,47,14.80
2014,05,23,16,48,14.80
2014,05,23,16,49,14.80
2014,05,23,16,50,14.80
2014,05,23,16,51,14.80
2014,05,23,16,52,14.80
2014,05,23,16,53,14.80
2014,05,23,16,54,14.80
2014,05,23,16,55,14.80
2014,05,23,16,56,14.80
2014,05,23,16,57,14.80
2014,05,23,16,58,14.80
2014,05,23,16,59,14.80
2014,05,23,17,00,15.60
2014,05,23,17,01,15.60
2014,05,23,17,02,15.60
2014,05,23,17,03,15.60
2014,05,23,17,04,15.60
2014,05,23,17,05,15.60
2014,05,23,17,06,15.60
2014,05,23,17,07,15.60
2014,05,23,17,08,15.60
2014,05,23,17,09,15.60
2014,05,23,17,10,15.60
2014,05,23,17,11,15.60
2014,05,23,17,12,15.60
2014,05,23,17,13,15.60
2014,05,23,17,14,15.60
2014,05,23,17,15,15.60
2014,05,23,17,16,15.60
2014,05,23,17,17,15.60
2014,05,23,17,18,15.60
2014,05,23,17,19,15.60
2014,05,23,17,20,15.60
2014,05,23,17,21,15.60
2014,05,23,17,22,15.60
2014,05,23,17,23,15.60
2014,05,23,17,24,15.60
2014,05,23,17,25,15.60
2014,05,23,17,26,15.60
2014,05,23,17,27,15.60
2014,05,23,17,28,15.60
2014,05,23,17,29,15.60
2014,05,23,17,30,15.60
2014,05,23,17,31,15.60
2014,05,23,17,32,15.60
2014,05,23,17,33,15.60
2014,05,23,17,34,15.60
2014,05,23,17,35,15.60
2014,05,23,17,36,15.60
2014,05,23,17,37,15.60
2014,05,23,17,38,15.60
2014,05,23,17,39,15.60
2014,05,23,17,40,15.60
2014,05,23,17,41,15.60
2014,05,23,17,42,15.60
2014,05,23,17,43,15.60
2014,05,23,17,44,15.60
2014,05,23,17,45,15.60
2014,05,23,17,46,15.60
2014,05,23,17,47,15.60
2014,05,23,17,48,15.60
2014,05,23,17,49,15.60
2014,05,23,17,50,15.60
2014,05,23,17,51,15.60
2014,05,23,17,52,15.60
2014,05,23,17,53,15.60
2014,05,23,17,54,15.60
2014,05,23,17,55,15.60
2014,05,23,17,56,15.60
2014,05,23,17,57,15.60
2014,05,23,17,58,15.60
2014,05,23,17,59,15.60
2014,05,23,18,01,15.30
2014,05,23,18,02,15.30
2014,05,23,18,03,15.30
2014,05,23,18,04,15.30
2014,05,23,18,05,15.30
2014,05,23,18,06,15.30
2014,05,23,18,07,15.30
2014,05,23,18,08,15.30
2014,05,23,18,09,15.30
2014,05,23,18,10,15.30
2014,05,23,18,11,15.30
2014,05,23,18,12,15.30
2014,05,23,18,13,15.30
2014,05,23,18,14,15.30
2014,05,23,18,15,15.30
2014,05,23,18,16,15.30
2014,05,23,18,17,15.30
2014,05,23,18,18,15.30
2014,05,23,18,19,15.30
2014,05,23,18,20,15.30
2014,05,23,18,21,15.30
2014,05,23,18,22,15.30
2014,05,23,18,23,15.30
2014,05,23,18,24,15.30
2014,05,23,18,25,15.30
2014,05,23,18,26,15.30
2014,05,23,18,27,15.30
2014,05,23,18,28,15.30
2014,05,23,18,29,15.30
2014,05,23,18,30,15.30
2014,05,23,18,31,15.30
2014,05,23,18,32,15.30
2014,05,23,18,33,15.30
2014,05,23,18,34,15.30
2014,05,23,18,35,15.30
2014,05,23,18,36,15.30
2014,05,23,18,37,15.30
2014,05,23,18,38,15.30
2014,05,23,18,39,15.30
2014,05,23,18,40,15.30
2014,05,23,18,41,15.30
2014,05,23,18,42,15.30
2014,05,23,18,43,15.30
2014,05,23,18,44,15.30
2014,05,23,18,45,15.30
2014,05,23,18,46,15.30
2014,05,23,18,47,15.30
2014,05,23,18,48,15.30
2014,05,23,18,49,15.30
2014,05,23,18,50,15.30
2014,05,23,18,51,15.30
2014,05,23,18,52,15.30
2014,05,23,18,53,15.30
2014,05,23,18,54,15.30
2014,05,23,18,55,15.30
2014,05,23,18,56,15.30
2014,05,23,18,57,15.30
2014,05,23,18,58,15.30
2014,05,23,18,59,15.30
2014,05,23,19,02,15.10
2014,05,23,19,03,15.10
2014,05,23,19,04,15.10
2014,05,23,19,05,15.10
2014,05,23,19,06,15.10
2014,05,23,19,07,15.10
2014,05,23,19,08,15.10
2014,05,23,19,09,15.10
2014,05,23,19,10,15.10
2014,05,23,19,11,15.10